START_TIME,STEP,MOV.,A46,t_acc.,A13,t_acc.,M47,t_acc.,A17,t_acc.,A28,t_acc.,M38,t_acc.
1979-03-07 06:00:23.220 ,2,0,,0,5.,4.8,0.,4.8,,0,0.,4.8,0.,4.8
1979-03-07 06:00:28.020 ,2,0,,0,1.,4.8,0.,4.8,,0,0.,4.8,0.,4.8
1979-03-07 06:00:32.820 ,2,0,,0,4.,4.8,1.,4.8,,0,0.,4.8,0.,4.8
1979-03-07 06:00:37.620 ,2,0,,0,0.,4.8,0.,4.8,,0,0.,4.8,0.,4.8
1979-03-07 06:00:42.420 ,2,0,,0,0.,4.8,0.,4.8,,0,0.,4.8,0.,4.8
1979-03-07 06:00:47.220 ,3,0,,0,0.,4.8,0.,4.8,,0,0.,4.8,0.,4.8
1979-03-07 06:00:52.020 ,3,0,,0,0.,4.8,0.,4.8,,0,0.,4.8,0.,4.8
1979-03-07 06:00:56.820 ,3,0,,0,0.,4.8,0.,4.8,,0,0.,4.8,0.,4.8
1979-03-07 06:01:01.620 ,3,0,,0,7.,4.8,0.,4.8,,0,0.,4.8,0.,4.8
1979-03-07 06:01:06.420 ,3,0,,0,10.,4.8,1.,4.8,,0,0.,4.8,0.,4.8
1979-03-07 06:01:11.210 ,4,0,,0,10.,4.8,0.,4.8,,0,0.,4.8,0.,4.8
1979-03-07 06:01:16.010 ,4,0,,0,6.,4.8,0.,4.8,,0,0.,4.8,0.,4.8
1979-03-07 06:01:20.820 ,4,0,,0,9.,4.8,0.,4.8,,0,0.,4.8,0.,4.8
1979-03-07 06:01:25.620 ,4,0,,0,0.,4.8,0.,4.8,,0,0.,4.8,0.,4.8
1979-03-07 06:01:30.420 ,4,0,,0,0.,4.8,0.,4.8,,0,0.,4.8,0.,4.8
1979-03-07 06:01:35.210 ,5,0,,0,0.,4.8,0.,4.8,,0,0.,4.8,0.,4.8
1979-03-07 06:01:40.010 ,5,0,,0,0.,4.8,0.,4.8,,0,0.,4.8,0.,4.8
1979-03-07 06:01:44.820 ,5,0,,0,2.,4.8,0.,4.8,,0,0.,4.8,0.,4.8
1979-03-07 06:01:49.620 ,5,0,,0,17.,4.8,1.,4.8,,0,0.,4.8,0.,4.8
1979-03-07 06:01:54.420 ,5,0,,0,9.,4.8,0.,4.8,,0,0.,4.8,0.,4.8
1979-03-07 06:01:59.210 ,6,0,,0,10.,4.8,3.,4.8,,0,0.,4.8,0.,4.8
1979-03-07 06:02:04.010 ,6,0,,0,11.,4.8,2.,4.8,,0,0.,4.8,0.,4.8
1979-03-07 06:02:08.820 ,6,0,,0,7.,4.8,1.,4.8,,0,0.,4.8,0.,4.8
1979-03-07 06:02:13.620 ,6,0,,0,0.,4.8,0.,4.8,,0,0.,4.8,0.,4.8
1979-03-07 06:02:18.420 ,6,0,,0,0.,4.8,0.,4.8,,0,0.,4.8,0.,4.8
1979-03-07 06:02:23.210 ,7,0,,0,0.,4.8,0.,4.8,,0,0.,4.8,0.,4.8
1979-03-07 06:02:28.010 ,7,0,,0,0.,4.8,0.,4.8,,0,0.,4.8,0.,4.8
1979-03-07 06:02:32.820 ,7,0,,0,1.,4.8,0.,4.8,,0,0.,4.8,0.,4.8
1979-03-07 06:02:37.620 ,7,0,,0,2.,4.8,0.,4.8,,0,0.,4.8,0.,4.8
1979-03-07 06:02:42.420 ,7,0,,0,5.,4.8,0.,4.8,,0,0.,4.8,0.,4.8
1979-03-07 06:02:47.210 ,7,0,,0,3.,4.8,0.,4.8,,0,0.,4.8,0.,4.8
1979-03-07 06:02:52.010 ,7,0,,0,5.,4.8,0.,4.8,,0,0.,4.8,0.,4.8
1979-03-07 06:02:56.820 ,7,0,,0,2.,4.8,0.,4.8,,0,0.,4.8,0.,4.8
1979-03-07 06:03:01.620 ,7,0,,0,0.,4.8,0.,4.8,,0,0.,4.8,0.,4.8
1979-03-07 06:03:06.420 ,7,0,,0,0.,4.8,0.,4.8,,0,0.,4.8,0.,4.8
1979-03-07 06:03:11.210 ,6,0,,0,0.,4.8,0.,4.8,,0,0.,4.8,0.,4.8
1979-03-07 06:03:16.010 ,6,0,,0,0.,4.8,0.,4.8,,0,0.,4.8,0.,4.8
1979-03-07 06:03:20.820 ,6,0,,0,1.,4.8,1.,4.8,,0,0.,4.8,0.,4.8
1979-03-07 06:03:25.620 ,6,0,,0,6.,4.8,1.,4.8,,0,0.,4.8,0.,4.8
1979-03-07 06:03:30.420 ,6,0,,0,10.,4.8,0.,4.8,,0,0.,4.8,0.,4.8
1979-03-07 06:03:35.210 ,5,0,,0,8.,4.8,0.,4.8,,0,0.,4.8,0.,4.8
1979-03-07 06:03:40.010 ,5,0,,0,7.,4.8,2.,4.8,,0,0.,4.8,0.,4.8
1979-03-07 06:03:44.820 ,5,0,,0,7.,4.8,1.,4.8,,0,0.,4.8,0.,4.8
1979-03-07 06:03:49.620 ,5,0,,0,1.,4.8,0.,4.8,,0,0.,4.8,0.,4.8
1979-03-07 06:03:54.420 ,5,0,,0,0.,4.8,0.,4.8,,0,0.,4.8,0.,4.8
1979-03-07 06:03:59.220 ,4,0,,0,0.,4.8,0.,4.8,,0,0.,4.8,0.,4.8
1979-03-07 06:04:04.020 ,4,0,,0,0.,4.8,0.,4.8,,0,0.,4.8,0.,4.8
1979-03-07 06:04:08.820 ,4,0,,0,1.,4.8,0.,4.8,,0,0.,4.8,0.,4.8
1979-03-07 06:04:13.620 ,4,0,,0,13.,4.8,1.,4.8,,0,0.,4.8,0.,4.8
1979-03-07 06:04:18.420 ,4,0,,0,8.,4.8,3.,4.8,,0,0.,4.8,0.,4.8
1979-03-07 06:04:23.220 ,3,0,,0,6.,4.8,0.,4.8,,0,0.,4.8,0.,4.8
1979-03-07 06:04:28.020 ,3,0,,0,9.,4.8,2.,4.8,,0,0.,4.8,0.,4.8
1979-03-07 06:04:32.820 ,3,0,,0,9.,4.8,1.,4.8,,0,0.,4.8,0.,4.8
1979-03-07 06:04:37.620 ,3,0,,0,0.,4.8,0.,4.8,,0,0.,4.8,0.,4.8
1979-03-07 06:04:42.420 ,3,0,,0,0.,4.8,0.,4.8,,0,0.,4.8,0.,4.8
1979-03-07 06:04:47.220 ,2,0,,0,0.,4.8,0.,4.8,,0,0.,4.8,0.,4.8
1979-03-07 06:04:52.020 ,2,0,,0,0.,4.8,0.,4.8,,0,0.,4.8,0.,4.8
1979-03-07 06:04:56.820 ,2,0,,0,0.,4.8,0.,4.8,,0,0.,4.8,0.,4.8
1979-03-07 06:05:01.620 ,2,0,,0,5.,4.8,0.,4.8,,0,0.,4.8,0.,4.8
1979-03-07 06:05:06.420 ,2,0,,0,7.,4.8,0.,4.8,,0,0.,4.8,0.,4.8
1979-03-07 06:05:11.220 ,1,0,,0,2.,4.8,1.,4.8,,0,0.,4.8,0.,4.8
1979-03-07 06:05:16.020 ,1,0,,0,4.,4.8,0.,4.8,,0,0.,4.8,0.,4.8
1979-03-07 06:05:20.820 ,1,0,,0,5.,4.8,0.,4.8,,0,0.,4.8,0.,4.8
1979-03-07 06:05:25.620 ,1,0,,0,0.,4.8,0.,4.8,,0,0.,4.8,0.,4.8
1979-03-07 06:05:30.420 ,1,0,,0,0.,4.8,0.,4.8,,0,0.,4.8,0.,4.8
1979-03-07 06:05:35.220 ,0,0,,0,0.,4.8,0.,4.8,,0,0.,4.8,0.,4.8
1979-03-07 06:05:40.020 ,0,0,,0,0.,4.8,0.,4.8,,0,0.,4.8,0.,4.8
1979-03-07 06:05:44.820 ,0,0,,0,1.,4.8,0.,4.8,,0,0.,4.8,0.,4.8
1979-03-07 06:05:49.620 ,0,0,,0,4.,4.8,0.,4.8,,0,0.,4.8,0.,4.8
1979-03-07 06:05:54.420 ,0,0,,0,4.,4.8,0.,4.8,,0,0.,4.8,0.,4.8
1979-03-07 06:05:59.220 ,0,0,,0,4.,4.8,1.,4.8,,0,0.,4.8,0.,4.8
1979-03-07 06:06:04.020 ,0,0,,0,1.,4.8,0.,4.8,,0,0.,4.8,0.,4.8
1979-03-07 06:06:08.820 ,0,0,,0,3.,4.8,0.,4.8,,0,0.,4.8,0.,4.8
1979-03-07 06:06:13.620 ,0,0,,0,0.,4.8,0.,4.8,,0,0.,4.8,0.,4.8
1979-03-07 06:06:18.420 ,0,0,,0,0.,4.8,0.,4.8,,0,0.,4.8,0.,4.8
1979-03-07 06:06:23.220 ,1,0,,0,0.,4.8,0.,4.8,,0,0.,4.8,0.,4.8
1979-03-07 06:06:28.020 ,1,0,,0,0.,4.8,0.,4.8,,0,0.,4.8,0.,4.8
1979-03-07 06:06:32.820 ,1,0,,0,2.,4.8,1.,4.8,,0,0.,4.8,0.,4.8
1979-03-07 06:06:37.620 ,1,0,,0,5.,4.8,0.,4.8,,0,0.,4.8,0.,4.8
1979-03-07 06:06:42.420 ,1,0,,0,5.,4.8,0.,4.8,,0,0.,4.8,0.,4.8
1979-03-07 06:06:47.220 ,2,0,,0,5.,4.8,1.,4.8,,0,0.,4.8,0.,4.8
1979-03-07 06:06:52.020 ,2,0,,0,10.,4.8,1.,4.8,,0,0.,4.8,0.,4.8
1979-03-07 06:06:56.820 ,2,0,,0,3.,4.8,0.,4.8,,0,0.,4.8,0.,4.8
1979-03-07 06:07:01.620 ,2,0,,0,0.,4.8,0.,4.8,,0,0.,4.8,0.,4.8
1979-03-07 06:07:06.420 ,2,0,,0,0.,4.8,0.,4.8,,0,0.,4.8,0.,4.8
1979-03-07 06:07:11.220 ,3,0,,0,0.,4.8,0.,4.8,,0,0.,4.8,0.,4.8
1979-03-07 06:07:16.020 ,3,0,,0,0.,4.8,0.,4.8,,0,0.,4.8,0.,4.8
1979-03-07 06:07:20.820 ,3,0,,0,0.,4.8,0.,4.8,,0,0.,4.8,0.,4.8
1979-03-07 06:07:25.620 ,3,0,,0,14.,4.8,2.,4.8,,0,0.,4.8,0.,4.8
1979-03-07 06:07:30.420 ,3,0,,0,6.,4.8,1.,4.8,,0,0.,4.8,0.,4.8
1979-03-07 06:07:35.220 ,4,0,,0,12.,4.8,0.,4.8,,0,0.,4.8,0.,4.8
1979-03-07 06:07:40.020 ,4,0,,0,9.,4.8,0.,4.8,,0,0.,4.8,0.,4.8
1979-03-07 06:07:44.820 ,4,0,,0,8.,4.8,2.,4.8,,0,0.,4.8,0.,4.8
1979-03-07 06:07:49.620 ,4,0,,0,0.,4.8,0.,4.8,,0,0.,4.8,0.,4.8
1979-03-07 06:07:54.420 ,4,0,,0,0.,4.8,0.,4.8,,0,0.,4.8,0.,4.8
1979-03-07 06:07:59.220 ,5,0,,0,1.,4.8,0.,4.8,,0,0.,4.8,0.,4.8
1979-03-07 06:08:04.020 ,5,0,,0,0.,4.8,0.,4.8,,0,0.,4.8,0.,4.8
1979-03-07 06:08:08.820 ,5,0,,0,1.,4.8,0.,4.8,,0,0.,4.8,0.,4.8
1979-03-07 06:08:13.620 ,5,0,,0,8.,4.8,0.,4.8,,0,0.,4.8,0.,4.8
1979-03-07 06:08:18.420 ,5,0,,0,2.,4.8,1.,4.8,,0,0.,4.8,0.,4.8
1979-03-07 06:08:23.220 ,6,0,,0,4.,4.8,0.,4.8,,0,0.,4.8,0.,4.8
1979-03-07 06:08:28.020 ,6,0,,0,8.,4.8,0.,4.8,,0,0.,4.8,0.,4.8
1979-03-07 06:08:32.820 ,6,0,,0,7.,4.8,1.,4.8,,0,0.,4.8,0.,4.8
1979-03-07 06:08:37.620 ,6,0,,0,0.,4.8,0.,4.8,,0,0.,4.8,0.,4.8
1979-03-07 06:08:42.420 ,6,0,,0,0.,4.8,0.,4.8,,0,0.,4.8,0.,4.8
1979-03-07 06:08:47.220 ,7,0,,0,0.,4.8,0.,4.8,,0,0.,4.8,0.,4.8
1979-03-07 06:08:52.020 ,7,0,,0,1.,4.8,0.,4.8,,0,0.,4.8,0.,4.8
1979-03-07 06:08:56.820 ,7,0,,0,0.,4.8,0.,4.8,,0,0.,4.8,0.,4.8
1979-03-07 06:09:01.620 ,7,0,,0,9.,4.8,0.,4.8,,0,0.,4.8,0.,4.8
1979-03-07 06:09:06.420 ,7,0,,0,7.,4.8,0.,4.8,,0,0.,4.8,0.,4.8
1979-03-07 06:09:11.220 ,7,0,,0,9.,4.8,0.,4.8,,0,0.,4.8,0.,4.8
1979-03-07 06:09:16.020 ,7,0,,0,4.,4.8,0.,4.8,,0,0.,4.8,0.,4.8
1979-03-07 06:09:20.820 ,7,0,,0,4.,4.8,0.,4.8,,0,0.,4.8,0.,4.8
1979-03-07 06:09:25.620 ,7,0,,0,0.,4.8,0.,4.8,,0,0.,4.8,0.,4.8
1979-03-07 06:09:30.420 ,7,0,,0,0.,4.8,0.,4.8,,0,0.,4.8,0.,4.8
1979-03-07 06:09:35.220 ,6,0,,0,0.,4.8,0.,4.8,,0,0.,4.8,0.,4.8
1979-03-07 06:09:40.020 ,6,0,,0,0.,4.8,0.,4.8,,0,0.,4.8,0.,4.8
1979-03-07 06:09:44.820 ,6,0,,0,1.,4.8,1.,4.8,,0,0.,4.8,0.,4.8
1979-03-07 06:09:49.620 ,6,0,,0,9.,4.8,1.,4.8,,0,0.,4.8,0.,4.8
1979-03-07 06:09:54.420 ,6,0,,0,5.,4.8,1.,4.8,,0,0.,4.8,0.,4.8
1979-03-07 06:09:59.220 ,5,0,,0,8.,4.8,0.,4.8,,0,0.,4.8,0.,4.8
1979-03-07 06:10:04.020 ,5,0,,0,8.,4.8,0.,4.8,,0,0.,4.8,0.,4.8
1979-03-07 06:10:08.820 ,5,0,,0,7.,4.8,1.,4.8,,0,0.,4.8,0.,4.8
1979-03-07 06:10:13.620 ,5,0,,0,0.,4.8,0.,4.8,,0,0.,4.8,0.,4.8
1979-03-07 06:10:18.420 ,5,0,,0,0.,4.8,0.,4.8,,0,0.,4.8,0.,4.8
1979-03-07 06:10:23.220 ,4,0,,0,0.,4.8,0.,4.8,,0,0.,4.8,0.,4.8
1979-03-07 06:10:28.020 ,4,0,,0,0.,4.8,0.,4.8,,0,0.,4.8,0.,4.8
1979-03-07 06:10:32.820 ,4,0,,0,0.,4.8,0.,4.8,,0,0.,4.8,0.,4.8
1979-03-07 06:10:37.620 ,4,0,,0,15.,4.8,0.,4.8,,0,0.,4.8,0.,4.8
1979-03-07 06:10:42.420 ,4,0,,0,12.,4.8,0.,4.8,,0,0.,4.8,0.,4.8
1979-03-07 06:10:47.220 ,3,0,,0,3.,4.8,0.,4.8,,0,0.,4.8,0.,4.8
1979-03-07 06:10:52.020 ,3,0,,0,7.,4.8,1.,4.8,,0,0.,4.8,0.,4.8
1979-03-07 06:10:56.820 ,3,0,,0,4.,4.8,0.,4.8,,0,0.,4.8,0.,4.8
1979-03-07 06:11:01.620 ,3,0,,0,0.,4.8,0.,4.8,,0,0.,4.8,0.,4.8
1979-03-07 06:11:06.420 ,3,0,,0,0.,4.8,0.,4.8,,0,0.,4.8,0.,4.8
1979-03-07 06:11:11.220 ,2,0,,0,0.,4.8,0.,4.8,,0,0.,4.8,0.,4.8
1979-03-07 06:11:16.020 ,2,0,,0,0.,4.8,0.,4.8,,0,0.,4.8,0.,4.8
1979-03-07 06:11:20.820 ,2,0,,0,1.,4.8,0.,4.8,,0,0.,4.8,0.,4.8
1979-03-07 06:11:25.620 ,2,0,,0,4.,4.8,1.,4.8,,0,0.,4.8,0.,4.8
1979-03-07 06:11:30.420 ,2,0,,0,7.,4.8,1.,4.8,,0,0.,4.8,0.,4.8
1979-03-07 06:11:35.220 ,1,0,,0,2.,4.8,0.,4.8,,0,0.,4.8,0.,4.8
1979-03-07 06:11:40.020 ,1,0,,0,6.,4.8,0.,4.8,,0,0.,4.8,0.,4.8
1979-03-07 06:11:44.820 ,1,0,,0,4.,4.8,1.,4.8,,0,0.,4.8,0.,4.8
1979-03-07 06:11:49.620 ,1,0,,0,0.,4.8,0.,4.8,,0,0.,4.8,0.,4.8
1979-03-07 06:11:54.420 ,1,0,,0,0.,4.8,0.,4.8,,0,0.,4.8,0.,4.8
1979-03-07 06:11:59.220 ,0,0,,0,0.,4.8,0.,4.8,,0,0.,4.8,0.,4.8
1979-03-07 06:12:04.020 ,0,0,,0,0.,4.8,0.,4.8,,0,0.,4.8,0.,4.8
1979-03-07 06:12:08.820 ,0,0,,0,0.,4.8,0.,4.8,,0,0.,4.8,0.,4.8
1979-03-07 06:12:13.620 ,0,0,,0,5.,4.8,0.,4.8,,0,0.,4.8,0.,4.8
1979-03-07 06:12:18.420 ,0,0,,0,4.,4.8,0.,4.8,,0,0.,4.8,0.,4.8
1979-03-07 06:12:23.220 ,0,0,,0,5.,4.8,0.,4.8,,0,0.,4.8,0.,4.8
1979-03-07 06:12:28.020 ,0,0,,0,2.,4.8,0.,4.8,,0,0.,4.8,0.,4.8
1979-03-07 06:12:32.820 ,0,0,,0,2.,4.8,0.,4.8,,0,0.,4.8,0.,4.8
1979-03-07 06:12:37.620 ,0,0,,0,0.,4.8,0.,4.8,,0,0.,4.8,0.,4.8
1979-03-07 06:12:42.420 ,0,0,,0,0.,4.8,0.,4.8,,0,0.,4.8,0.,4.8
1979-03-07 06:12:47.220 ,1,0,,0,0.,4.8,0.,4.8,,0,0.,4.8,0.,4.8
1979-03-07 06:12:52.020 ,1,0,,0,0.,4.8,0.,4.8,,0,0.,4.8,0.,4.8
1979-03-07 06:12:56.820 ,1,0,,0,0.,4.8,0.,4.8,,0,0.,4.8,0.,4.8
1979-03-07 06:13:01.620 ,1,0,,0,0.,4.8,0.,4.8,,0,0.,4.8,0.,4.8
1979-03-07 06:13:06.420 ,1,0,,0,4.,4.8,0.,4.8,,0,0.,4.8,0.,4.8
1979-03-07 06:13:11.220 ,2,0,,0,5.,4.8,0.,4.8,,0,0.,4.8,0.,4.8
1979-03-07 06:13:16.020 ,2,0,,0,3.,4.8,0.,4.8,,0,0.,4.8,0.,4.8
1979-03-07 06:13:20.820 ,2,0,,0,9.,4.8,1.,4.8,,0,0.,4.8,0.,4.8
1979-03-07 06:13:25.620 ,2,0,,0,0.,4.8,0.,4.8,,0,0.,4.8,0.,4.8
1979-03-07 06:13:30.420 ,2,0,,0,0.,4.8,0.,4.8,,0,0.,4.8,0.,4.8
1979-03-07 06:13:35.220 ,3,0,,0,0.,4.8,0.,4.8,,0,0.,4.8,0.,4.8
1979-03-07 06:13:40.020 ,3,0,,0,0.,4.8,0.,4.8,,0,0.,4.8,0.,4.8
1979-03-07 06:13:44.820 ,3,0,,0,1.,4.8,0.,4.8,,0,0.,4.8,0.,4.8
1979-03-07 06:13:49.620 ,3,0,,0,17.,4.8,1.,4.8,,0,0.,4.8,0.,4.8
1979-03-07 06:13:54.420 ,3,0,,0,5.,4.8,0.,4.8,,0,0.,4.8,0.,4.8
1979-03-07 06:13:59.220 ,4,0,,0,4.,4.8,0.,4.8,,0,0.,4.8,0.,4.8
1979-03-07 06:14:04.020 ,4,0,,0,13.,4.8,0.,4.8,,0,0.,4.8,0.,4.8
1979-03-07 06:14:08.820 ,4,0,,0,10.,4.8,2.,4.8,,0,0.,4.8,0.,4.8
1979-03-07 06:14:13.620 ,4,0,,0,0.,4.8,0.,4.8,,0,0.,4.8,0.,4.8
1979-03-07 06:14:18.420 ,4,0,,0,0.,4.8,0.,4.8,,0,0.,4.8,0.,4.8
1979-03-07 06:14:23.220 ,5,0,,0,0.,4.8,0.,4.8,,0,0.,4.8,0.,4.8
1979-03-07 06:14:28.020 ,5,0,,0,0.,4.8,0.,4.8,,0,0.,4.8,0.,4.8
1979-03-07 06:14:32.820 ,5,0,,0,0.,4.8,0.,4.8,,0,0.,4.8,0.,4.8
1979-03-07 06:14:37.620 ,5,0,,0,10.,4.8,0.,4.8,,0,0.,4.8,0.,4.8
1979-03-07 06:14:42.420 ,5,0,,0,16.,4.8,0.,4.8,,0,0.,4.8,0.,4.8
1979-03-07 06:14:47.220 ,6,0,,0,11.,4.8,0.,4.8,,0,0.,4.8,0.,4.8
1979-03-07 06:14:52.020 ,6,0,,0,11.,4.8,1.,4.8,,0,0.,4.8,0.,4.8
1979-03-07 06:14:56.820 ,6,0,,0,4.,4.8,0.,4.8,,0,0.,4.8,0.,4.8
1979-03-07 06:15:01.620 ,6,0,,0,0.,4.8,0.,4.8,,0,0.,4.8,0.,4.8
1979-03-07 06:15:06.420 ,6,0,,0,0.,4.8,0.,4.8,,0,0.,4.8,0.,4.8
1979-03-07 06:15:11.220 ,7,0,,0,0.,4.8,0.,4.8,,0,0.,4.8,0.,4.8
1979-03-07 06:15:16.020 ,7,0,,0,0.,4.8,0.,4.8,,0,0.,4.8,0.,4.8
1979-03-07 06:15:20.820 ,7,0,,0,1.,4.8,0.,4.8,,0,0.,4.8,0.,4.8
1979-03-07 06:15:25.620 ,7,0,,0,7.,4.8,0.,4.8,,0,0.,4.8,0.,4.8
1979-03-07 06:15:30.420 ,7,0,,0,4.,4.8,0.,4.8,,0,0.,4.8,0.,4.8
1979-03-07 06:15:35.220 ,7,0,,0,3.,4.8,0.,4.8,,0,0.,4.8,0.,4.8
1979-03-07 06:15:40.020 ,7,0,,0,4.,4.8,0.,4.8,,0,0.,4.8,0.,4.8
1979-03-07 06:15:44.820 ,7,0,,0,4.,4.8,0.,4.8,,0,0.,4.8,0.,4.8
1979-03-07 06:15:49.620 ,7,0,,0,0.,4.8,0.,4.8,,0,0.,4.8,0.,4.8
1979-03-07 06:15:54.420 ,7,0,,0,0.,4.8,0.,4.8,,0,0.,4.8,0.,4.8
1979-03-07 06:15:59.220 ,6,0,,0,0.,4.8,0.,4.8,,0,0.,4.8,0.,4.8
1979-03-07 06:16:04.020 ,6,0,,0,0.,4.8,0.,4.8,,0,0.,4.8,0.,4.8
1979-03-07 06:16:08.820 ,6,0,,0,1.,4.8,0.,4.8,,0,0.,4.8,0.,4.8
1979-03-07 06:16:13.620 ,6,0,,0,11.,4.8,3.,4.8,,0,0.,4.8,0.,4.8
1979-03-07 06:16:18.420 ,6,0,,0,5.,4.8,2.,4.8,,0,0.,4.8,0.,4.8
1979-03-07 06:16:23.220 ,5,0,,0,7.,4.8,0.,4.8,,0,0.,4.8,0.,4.8
1979-03-07 06:16:28.020 ,5,0,,0,7.,4.8,0.,4.8,,0,0.,4.8,0.,4.8
1979-03-07 06:16:32.820 ,5,0,,0,4.,4.8,2.,4.8,,0,0.,4.8,0.,4.8
1979-03-07 06:16:37.620 ,5,0,,0,0.,4.8,0.,4.8,,0,0.,4.8,0.,4.8
1979-03-07 06:16:42.420 ,5,0,,0,0.,4.8,0.,4.8,,0,0.,4.8,0.,4.8
1979-03-07 06:16:47.220 ,4,0,,0,0.,4.8,0.,4.8,,0,0.,4.8,0.,4.8
1979-03-07 06:16:52.020 ,4,0,,0,0.,4.8,0.,4.8,,0,0.,4.8,0.,4.8
1979-03-07 06:16:56.820 ,4,0,,0,3.,4.8,0.,4.8,,0,0.,4.8,0.,4.8
1979-03-07 06:17:01.620 ,4,0,,0,10.,4.8,2.,4.8,,0,0.,4.8,0.,4.8
1979-03-07 06:17:06.420 ,4,0,,0,15.,4.8,2.,4.8,,0,0.,4.8,0.,4.8
1979-03-07 06:17:11.220 ,3,0,,0,12.,4.8,2.,4.8,,0,0.,4.8,0.,4.8
1979-03-07 06:17:16.020 ,3,0,,0,11.,4.8,1.,4.8,,0,0.,4.8,0.,4.8
1979-03-07 06:17:20.820 ,3,0,,0,9.,4.8,1.,4.8,,0,0.,4.8,0.,4.8
1979-03-07 06:17:25.620 ,3,0,,0,0.,4.8,0.,4.8,,0,0.,4.8,0.,4.8
1979-03-07 06:17:30.420 ,3,0,,0,0.,4.8,0.,4.8,,0,0.,4.8,0.,4.8
1979-03-07 06:17:35.220 ,2,0,,0,0.,4.8,0.,4.8,,0,0.,4.8,0.,4.8
1979-03-07 06:17:40.020 ,2,0,,0,0.,4.8,0.,4.8,,0,0.,4.8,0.,4.8
1979-03-07 06:17:44.820 ,2,0,,0,2.,4.8,0.,4.8,,0,0.,4.8,0.,4.8
1979-03-07 06:17:49.620 ,2,0,,0,12.,4.8,1.,4.8,,0,0.,4.8,0.,4.8
1979-03-07 06:17:54.420 ,2,0,,0,12.,4.8,2.,4.8,,0,0.,4.8,0.,4.8
1979-03-07 06:17:59.220 ,1,0,,0,5.,4.8,0.,4.8,,0,0.,4.8,0.,4.8
1979-03-07 06:18:04.020 ,1,0,,0,7.,4.8,0.,4.8,,0,0.,4.8,0.,4.8
1979-03-07 06:18:08.820 ,1,0,,0,4.,4.8,0.,4.8,,0,0.,4.8,0.,4.8
1979-03-07 06:18:13.620 ,1,0,,0,0.,4.8,0.,4.8,,0,0.,4.8,0.,4.8
1979-03-07 06:18:18.420 ,1,0,,0,0.,4.8,0.,4.8,,0,0.,4.8,0.,4.8
1979-03-07 06:18:23.220 ,0,0,,0,0.,4.8,0.,4.8,,0,0.,4.8,0.,4.8
1979-03-07 06:18:28.020 ,0,0,,0,0.,4.8,0.,4.8,,0,0.,4.8,0.,4.8
1979-03-07 06:18:32.820 ,0,0,,0,3.,4.8,0.,4.8,,0,0.,4.8,0.,4.8
1979-03-07 06:18:37.620 ,0,0,,0,7.,4.8,0.,4.8,,0,0.,4.8,0.,4.8
1979-03-07 06:18:42.420 ,0,0,,0,1.,4.8,0.,4.8,,0,0.,4.8,0.,4.8
1979-03-07 06:18:47.220 ,0,0,,0,1.,4.8,0.,4.8,,0,0.,4.8,0.,4.8
1979-03-07 06:18:52.020 ,0,0,,0,3.,4.8,1.,4.8,,0,0.,4.8,0.,4.8
1979-03-07 06:18:56.820 ,0,0,,0,1.,4.8,0.,4.8,,0,0.,4.8,0.,4.8
1979-03-07 06:19:01.620 ,0,0,,0,0.,4.8,0.,4.8,,0,0.,4.8,0.,4.8
1979-03-07 06:19:06.420 ,0,0,,0,0.,4.8,0.,4.8,,0,0.,4.8,0.,4.8
1979-03-07 06:19:11.220 ,1,0,,0,0.,4.8,0.,4.8,,0,0.,4.8,0.,4.8
1979-03-07 06:19:16.020 ,1,0,,0,0.,4.8,0.,4.8,,0,0.,4.8,0.,4.8
1979-03-07 06:19:20.820 ,1,0,,0,3.,4.8,0.,4.8,,0,0.,4.8,0.,4.8
1979-03-07 06:19:25.620 ,1,0,,0,4.,4.8,0.,4.8,,0,0.,4.8,0.,4.8
1979-03-07 06:19:30.420 ,1,0,,0,7.,4.8,1.,4.8,,0,0.,4.8,0.,4.8
1979-03-07 06:19:35.220 ,2,0,,0,4.,4.8,0.,4.8,,0,0.,4.8,0.,4.8
1979-03-07 06:19:40.020 ,2,0,,0,5.,4.8,1.,4.8,,0,0.,4.8,0.,4.8
1979-03-07 06:19:44.820 ,2,0,,0,4.,4.8,1.,4.8,,0,0.,4.8,0.,4.8
1979-03-07 06:19:49.620 ,2,0,,0,0.,4.8,0.,4.8,,0,0.,4.8,0.,4.8
1979-03-07 06:19:54.420 ,2,0,,0,0.,4.8,0.,4.8,,0,0.,4.8,0.,4.8
1979-03-07 06:19:59.220 ,3,0,,0,0.,4.8,0.,4.8,,0,0.,4.8,0.,4.8
1979-03-07 06:20:04.020 ,3,0,,0,0.,4.8,0.,4.8,,0,0.,4.8,0.,4.8
1979-03-07 06:20:08.820 ,3,0,,0,3.,4.8,1.,4.8,,0,0.,4.8,0.,4.8
1979-03-07 06:20:13.620 ,3,0,,0,7.,4.8,1.,4.8,,0,0.,4.8,0.,4.8
1979-03-07 06:20:18.420 ,3,0,,0,7.,4.8,2.,4.8,,0,0.,4.8,0.,4.8
1979-03-07 06:20:23.220 ,4,0,,0,5.,4.8,1.,4.8,,0,0.,4.8,0.,4.8
1979-03-07 06:20:28.020 ,4,0,,0,12.,4.8,3.,4.8,,0,0.,4.8,0.,4.8
1979-03-07 06:20:32.820 ,4,0,,0,8.,4.8,0.,4.8,,0,0.,4.8,0.,4.8
1979-03-07 06:20:37.620 ,4,0,,0,0.,4.8,0.,4.8,,0,0.,4.8,0.,4.8
1979-03-07 06:20:42.420 ,4,0,,0,0.,4.8,0.,4.8,,0,0.,4.8,0.,4.8
1979-03-07 06:20:47.220 ,5,0,,0,0.,4.8,0.,4.8,,0,0.,4.8,0.,4.8
1979-03-07 06:20:52.020 ,5,0,,0,0.,4.8,0.,4.8,,0,0.,4.8,0.,4.8
1979-03-07 06:20:56.820 ,5,0,,0,1.,4.8,0.,4.8,,0,0.,4.8,0.,4.8
1979-03-07 06:21:01.620 ,5,0,,0,4.,4.8,0.,4.8,,0,0.,4.8,0.,4.8
1979-03-07 06:21:06.420 ,5,0,,0,6.,4.8,1.,4.8,,0,0.,4.8,0.,4.8
1979-03-07 06:21:11.220 ,6,0,,0,7.,4.8,1.,4.8,,0,0.,4.8,0.,4.8
1979-03-07 06:21:16.020 ,6,0,,0,8.,4.8,0.,4.8,,0,0.,4.8,0.,4.8
1979-03-07 06:21:20.820 ,6,0,,0,3.,4.8,1.,4.8,,0,0.,4.8,0.,4.8
1979-03-07 06:21:25.620 ,6,0,,0,0.,4.8,0.,4.8,,0,0.,4.8,0.,4.8
1979-03-07 06:21:30.420 ,6,0,,0,0.,4.8,0.,4.8,,0,0.,4.8,0.,4.8
1979-03-07 06:21:35.220 ,7,0,,0,0.,4.8,0.,4.8,,0,0.,4.8,0.,4.8
1979-03-07 06:21:40.020 ,7,0,,0,0.,4.8,0.,4.8,,0,0.,4.8,0.,4.8
1979-03-07 06:21:44.820 ,7,0,,0,2.,4.8,0.,4.8,,0,0.,4.8,0.,4.8
1979-03-07 06:21:49.620 ,7,0,,0,6.,4.8,0.,4.8,,0,0.,4.8,0.,4.8
1979-03-07 06:21:54.420 ,7,0,,0,4.,4.8,0.,4.8,,0,0.,4.8,0.,4.8
1979-03-07 06:21:59.220 ,7,0,,0,3.,4.8,0.,4.8,,0,0.,4.8,0.,4.8
1979-03-07 06:22:04.020 ,7,0,,0,3.,4.8,0.,4.8,,0,0.,4.8,0.,4.8
1979-03-07 06:22:08.820 ,7,0,,0,3.,4.8,0.,4.8,,0,0.,4.8,0.,4.8
1979-03-07 06:22:13.620 ,7,0,,0,0.,4.8,0.,4.8,,0,0.,4.8,0.,4.8
1979-03-07 06:22:18.420 ,7,0,,0,0.,4.8,0.,4.8,,0,0.,4.8,0.,4.8
1979-03-07 06:22:23.220 ,6,0,,0,0.,4.8,0.,4.8,,0,0.,4.8,0.,4.8
1979-03-07 06:22:28.020 ,6,0,,0,0.,4.8,0.,4.8,,0,0.,4.8,0.,4.8
1979-03-07 06:22:32.820 ,6,0,,0,1.,4.8,0.,4.8,,0,0.,4.8,0.,4.8
1979-03-07 06:22:37.620 ,6,0,,0,5.,4.8,0.,4.8,,0,0.,4.8,0.,4.8
1979-03-07 06:22:42.420 ,6,0,,0,4.,4.8,0.,4.8,,0,0.,4.8,0.,4.8
1979-03-07 06:22:47.220 ,5,0,,0,6.,4.8,0.,4.8,,0,0.,4.8,0.,4.8
1979-03-07 06:22:52.020 ,5,0,,0,7.,4.8,0.,4.8,,0,0.,4.8,0.,4.8
1979-03-07 06:22:56.820 ,5,0,,0,7.,4.8,0.,4.8,,0,0.,4.8,0.,4.8
1979-03-07 06:23:01.620 ,5,0,,0,0.,4.8,0.,4.8,,0,0.,4.8,0.,4.8
1979-03-07 06:23:06.420 ,5,0,,0,0.,4.8,0.,4.8,,0,0.,4.8,0.,4.8
1979-03-07 06:23:11.220 ,4,0,,0,0.,4.8,0.,4.8,,0,0.,4.8,0.,4.8
1979-03-07 06:23:16.020 ,4,0,,0,0.,4.8,0.,4.8,,0,0.,4.8,0.,4.8
1979-03-07 06:23:20.820 ,4,0,,0,1.,4.8,0.,4.8,,0,0.,4.8,0.,4.8
1979-03-07 06:23:25.620 ,4,0,,0,6.,4.8,0.,4.8,,0,0.,4.8,0.,4.8
1979-03-07 06:23:30.420 ,4,0,,0,4.,4.8,0.,4.8,,0,0.,4.8,0.,4.8
1979-03-07 06:23:35.220 ,3,0,,0,6.,4.8,0.,4.8,,0,0.,4.8,0.,4.8
1979-03-07 06:23:40.020 ,3,0,,0,7.,4.8,2.,4.8,,0,0.,4.8,0.,4.8
1979-03-07 06:23:44.820 ,3,0,,0,8.,4.8,0.,4.8,,0,0.,4.8,0.,4.8
1979-03-07 06:23:49.620 ,3,0,,0,0.,4.8,0.,4.8,,0,0.,4.8,0.,4.8
1979-03-07 06:23:54.420 ,3,0,,0,1.,4.8,0.,4.8,,0,0.,4.8,0.,4.8
1979-03-07 06:23:59.220 ,2,0,,0,0.,4.8,0.,4.8,,0,0.,4.8,0.,4.8
1979-03-07 06:24:04.020 ,2,0,,0,0.,4.8,0.,4.8,,0,0.,4.8,0.,4.8
1979-03-07 06:24:08.820 ,2,0,,0,3.,4.8,0.,4.8,,0,0.,4.8,0.,4.8
1979-03-07 06:24:13.620 ,2,0,,0,9.,4.8,1.,4.8,,0,0.,4.8,0.,4.8
1979-03-07 06:24:18.420 ,2,0,,0,9.,4.8,0.,4.8,,0,0.,4.8,0.,4.8
1979-03-07 06:24:23.220 ,1,0,,0,10.,4.8,2.,4.8,,0,0.,4.8,0.,4.8
1979-03-07 06:24:28.020 ,1,0,,0,9.,4.8,1.,4.8,,0,0.,4.8,0.,4.8
1979-03-07 06:24:32.820 ,1,0,,0,3.,4.8,0.,4.8,,0,0.,4.8,0.,4.8
1979-03-07 06:24:37.620 ,1,0,,0,0.,4.8,0.,4.8,,0,0.,4.8,0.,4.8
1979-03-07 06:24:42.420 ,1,0,,0,0.,4.8,0.,4.8,,0,0.,4.8,0.,4.8
1979-03-07 06:24:47.220 ,0,0,,0,0.,4.8,0.,4.8,,0,0.,4.8,0.,4.8
1979-03-07 06:24:52.020 ,0,0,,0,0.,4.8,0.,4.8,,0,0.,4.8,0.,4.8
1979-03-07 06:24:56.820 ,0,0,,0,1.,4.8,0.,4.8,,0,0.,4.8,0.,4.8
1979-03-07 06:25:01.620 ,0,0,,0,10.,4.8,1.,4.8,,0,0.,4.8,0.,4.8
1979-03-07 06:25:06.420 ,0,0,,0,8.,4.8,1.,4.8,,0,0.,4.8,0.,4.8
1979-03-07 06:25:11.220 ,0,0,,0,3.,4.8,0.,4.8,,0,0.,4.8,0.,4.8
1979-03-07 06:25:16.020 ,0,0,,0,7.,4.8,1.,4.8,,0,0.,4.8,0.,4.8
1979-03-07 06:25:20.820 ,0,0,,0,4.,4.8,0.,4.8,,0,0.,4.8,0.,4.8
1979-03-07 06:25:25.620 ,0,0,,0,0.,4.8,0.,4.8,,0,0.,4.8,0.,4.8
1979-03-07 06:25:30.420 ,0,0,,0,0.,4.8,0.,4.8,,0,0.,4.8,0.,4.8
1979-03-07 06:25:35.220 ,1,0,,0,0.,4.8,0.,4.8,,0,0.,4.8,0.,4.8
1979-03-07 06:25:40.020 ,1,0,,0,0.,4.8,0.,4.8,,0,0.,4.8,0.,4.8
1979-03-07 06:25:44.820 ,1,0,,0,2.,4.8,0.,4.8,,0,0.,4.8,0.,4.8
1979-03-07 06:25:49.620 ,1,0,,0,2.,4.8,0.,4.8,,0,0.,4.8,0.,4.8
1979-03-07 06:25:54.420 ,1,0,,0,4.,4.8,0.,4.8,,0,0.,4.8,0.,4.8
1979-03-07 06:25:59.220 ,2,0,,0,5.,4.8,1.,4.8,,0,0.,4.8,0.,4.8
1979-03-07 06:26:04.020 ,2,0,,0,6.,4.8,1.,4.8,,0,0.,4.8,0.,4.8
1979-03-07 06:26:08.820 ,2,0,,0,3.,4.8,0.,4.8,,0,0.,4.8,0.,4.8
1979-03-07 06:26:13.620 ,2,0,,0,0.,4.8,0.,4.8,,0,0.,4.8,0.,4.8
1979-03-07 06:26:18.420 ,2,0,,0,0.,4.8,0.,4.8,,0,0.,4.8,0.,4.8
1979-03-07 06:26:23.220 ,3,0,,0,0.,4.8,0.,4.8,,0,0.,4.8,0.,4.8
1979-03-07 06:26:28.020 ,3,0,,0,0.,4.8,0.,4.8,,0,0.,4.8,0.,4.8
1979-03-07 06:26:32.820 ,3,0,,0,2.,4.8,1.,4.8,,0,0.,4.8,0.,4.8
1979-03-07 06:26:37.620 ,3,0,,0,10.,4.8,2.,4.8,,0,0.,4.8,0.,4.8
1979-03-07 06:26:42.420 ,3,0,,0,8.,4.8,0.,4.8,,0,0.,4.8,0.,4.8
1979-03-07 06:26:47.220 ,4,0,,0,8.,4.8,1.,4.8,,0,0.,4.8,0.,4.8
1979-03-07 06:26:52.020 ,4,0,,0,7.,4.8,0.,4.8,,0,0.,4.8,0.,4.8
1979-03-07 06:26:56.820 ,4,0,,0,3.,4.8,0.,4.8,,0,0.,4.8,0.,4.8
1979-03-07 06:27:01.620 ,4,0,,0,0.,4.8,0.,4.8,,0,0.,4.8,0.,4.8
1979-03-07 06:27:06.420 ,4,0,,0,1.,4.8,0.,4.8,,0,0.,4.8,0.,4.8
1979-03-07 06:27:11.220 ,5,0,,0,0.,4.8,0.,4.8,,0,0.,4.8,0.,4.8
1979-03-07 06:27:16.020 ,5,0,,0,0.,4.8,0.,4.8,,0,0.,4.8,0.,4.8
1979-03-07 06:27:20.820 ,5,0,,0,1.,4.8,1.,4.8,,0,0.,4.8,0.,4.8
1979-03-07 06:27:25.620 ,5,0,,0,6.,4.8,0.,4.8,,0,0.,4.8,0.,4.8
1979-03-07 06:27:30.420 ,5,0,,0,1.,4.8,0.,4.8,,0,0.,4.8,0.,4.8
1979-03-07 06:27:35.220 ,6,0,,0,10.,4.8,0.,4.8,,0,0.,4.8,0.,4.8
1979-03-07 06:27:40.020 ,6,0,,0,4.,4.8,0.,4.8,,0,0.,4.8,0.,4.8
1979-03-07 06:27:44.820 ,6,0,,0,8.,4.8,2.,4.8,,0,0.,4.8,0.,4.8
1979-03-07 06:27:49.620 ,6,0,,0,0.,4.8,0.,4.8,,0,0.,4.8,0.,4.8
1979-03-07 06:27:54.420 ,6,0,,0,0.,4.8,0.,4.8,,0,0.,4.8,0.,4.8
1979-03-07 06:27:59.220 ,7,0,,0,0.,4.8,0.,4.8,,0,0.,4.8,0.,4.8
1979-03-07 06:28:04.020 ,7,0,,0,0.,4.8,0.,4.8,,0,0.,4.8,0.,4.8
1979-03-07 06:28:08.820 ,7,0,,0,0.,4.8,0.,4.8,,0,0.,4.8,0.,4.8
1979-03-07 06:28:13.620 ,7,0,,0,11.,4.8,0.,4.8,,0,0.,4.8,0.,4.8
1979-03-07 06:28:18.420 ,7,0,,0,5.,4.8,0.,4.8,,0,0.,4.8,0.,4.8
1979-03-07 06:28:23.220 ,7,0,,0,1.,4.8,0.,4.8,,0,0.,4.8,0.,4.8
1979-03-07 06:28:28.020 ,7,0,,0,7.,4.8,0.,4.8,,0,0.,4.8,0.,4.8
1979-03-07 06:28:32.820 ,7,0,,0,7.,4.8,0.,4.8,,0,0.,4.8,0.,4.8
1979-03-07 06:28:37.620 ,7,0,,0,0.,4.8,0.,4.8,,0,0.,4.8,0.,4.8
1979-03-07 06:28:42.420 ,7,0,,0,0.,4.8,0.,4.8,,0,0.,4.8,0.,4.8
1979-03-07 06:28:47.220 ,6,0,,0,0.,4.8,0.,4.8,,0,0.,4.8,0.,4.8
1979-03-07 06:28:52.020 ,6,0,,0,0.,4.8,0.,4.8,,0,0.,4.8,0.,4.8
1979-03-07 06:28:56.820 ,6,0,,0,1.,4.8,0.,4.8,,0,0.,4.8,0.,4.8
1979-03-07 06:29:01.620 ,6,0,,0,7.,4.8,1.,4.8,,0,0.,4.8,0.,4.8
1979-03-07 06:29:06.420 ,6,0,,0,3.,4.8,0.,4.8,,0,0.,4.8,0.,4.8
1979-03-07 06:29:11.220 ,5,0,,0,7.,4.8,0.,4.8,,0,0.,4.8,0.,4.8
1979-03-07 06:29:16.020 ,5,0,,0,5.,4.8,0.,4.8,,0,0.,4.8,0.,4.8
1979-03-07 06:29:20.820 ,5,0,,0,2.,4.8,0.,4.8,,0,0.,4.8,0.,4.8
1979-03-07 06:29:25.620 ,5,0,,0,0.,4.8,0.,4.8,,0,0.,4.8,0.,4.8
1979-03-07 06:29:30.420 ,5,0,,0,0.,4.8,0.,4.8,,0,0.,4.8,0.,4.8
1979-03-07 06:29:35.220 ,4,0,,0,0.,4.8,0.,4.8,,0,0.,4.8,0.,4.8
1979-03-07 06:29:40.020 ,4,0,,0,0.,4.8,0.,4.8,,0,0.,4.8,0.,4.8
1979-03-07 06:29:44.820 ,4,0,,0,0.,4.8,0.,4.8,,0,0.,4.8,0.,4.8
1979-03-07 06:29:49.620 ,4,0,,0,6.,4.8,0.,4.8,,0,0.,4.8,0.,4.8
1979-03-07 06:29:54.420 ,4,0,,0,4.,4.8,0.,4.8,,0,0.,4.8,0.,4.8
1979-03-07 06:29:59.220 ,3,0,,0,4.,4.8,0.,4.8,,0,0.,4.8,0.,4.8
1979-03-07 06:30:04.020 ,3,0,,0,6.,4.8,0.,4.8,,0,0.,4.8,0.,4.8
1979-03-07 06:30:08.820 ,3,0,,0,2.,4.8,0.,4.8,,0,0.,4.8,0.,4.8